Location: Dayton
(39.7590°N, 84.1920°W)
Time: 12:38:30
(UTC-05:00)

Daily predictions for brighter satellites

Satellite Brightness Start Highest point End
(mag) Time Altitude Azimuth Time Altitude Azimuth Time Altitude Azimuth
Cosmos 2263 Rocket 3.4 17:32:40 10° SW 17:37:54 40° WNW 17:43:12 10° N
Meteor 1-11 Rocket 4.0 17:37:32 10° NNW 17:43:05 75° W 17:48:34 10° S
ISS -3.3 17:42:23 10° SW 17:45:39 75° SE 17:48:57 10° NE
Cosmos 1633 3.1 17:45:08 10° NNW 17:48:41 64° W 17:52:13 10° S
Cosmos 1461 3.9 17:47:27 10° NW 17:51:16 48° WSW 17:55:05 10° SSE
MSX 4.2 17:47:29 10° SE 17:52:51 42° ENE 17:58:13 10° N
SL-27 R/B 3.4 17:51:41 10° N 17:54:55 28° ENE 17:58:07 10° SE
Cosmos 1812 3.7 17:52:43 10° SSE 17:55:58 26° E 17:59:13 10° NNE
Okean 1 Rocket 4.1 17:52:42 10° NNW 17:56:54 50° W 18:01:05 10° SSW
SJ-12 3.8 17:54:04 10° SSE 17:58:07 72° ENE 18:02:13 10° N
CZ-4 R/B 1.5 17:56:22 10° SSE 18:00:34 87° WSW 18:04:45 10° NNW
Okean 3 4.2 17:57:04 10° SSW 18:01:17 56° W 18:05:30 10° N
COSMO-SKYMED 1 3.6 17:58:47 10° NE 18:02:29 27° E 18:06:09 10° SSE
Cosmos 1544 Rocket 3.9 17:59:04 10° N 18:03:21 45° ENE 18:07:38 10° SSE
Cosmos 158 Rocket 4.0 17:58:14 10° NNW 18:03:39 80° ENE 18:08:54 10° SSE
Cosmos 1844 Rocket 2.7 17:58:33 10° SSW 18:04:07 74° ESE 18:09:44 10° NNE
Cosmos 1975 Rocket 3.2 18:01:16 10° SSW 18:05:34 76° W 18:09:53 10° N
GEOS 3 Rocket 4.2 18:02:26 10° ESE 18:07:03 35° NE 18:11:40 10° NNW
CZ-2C R/B 2.4 18:02:19 10° SSE 18:07:14 83° ENE 18:12:21 10° N
Cosmos 1238 Rocket 2.5 18:08:09 10° SSE 18:10:59 40° E 18:13:46 10° NNE
Cosmos 1844 3.7 18:08:52 10° S 18:14:22 66° ESE 18:19:53 10° NNE
CZ-3A R/B 3.7 18:10:10 10° W 18:14:42 54° NNW 18:35:18 12° NE
Cosmos 1975 3.6 18:13:32 10° NNE 18:17:09 30° ENE 18:20:43 10° SE
BREEZE-M DEB (TANK) 3.2 18:15:34 10° W 18:17:25 22° NNW 18:18:34 16° NNE
AQUARIUS 4.4 18:14:48 10° S 18:19:17 73° W 18:23:47 10° NNW
Cosmos 1536 Rocket 3.8 18:17:49 10° SSE 18:22:05 48° E 18:26:24 10° NNE
CORIOLIS 4.3 18:16:55 10° SSE 18:22:21 83° WSW 18:27:46 10° NNW
COSMOS 2441 4.3 18:18:04 10° SSE 18:22:51 63° ENE 18:27:41 10° N
SPOT 3 Rocket 4.1 18:20:42 10° S 18:25:51 64° WSW 18:31:01 10° NNW
SMAP 3.7 18:23:09 10° S 18:27:44 60° W 18:32:21 10° NNW
SL-24 DEB 4.3 18:23:10 10° NNE 18:27:53 59° E 18:32:30 10° S
YAOGAN 1 3.2 18:24:55 10° S 18:29:11 60° W 18:33:29 10° NNW
Cosmos 2278 Rocket 2.3 18:26:37 10° S 18:32:07 56° ESE 18:36:35 16° NE
COSMOS 2406 4.1 18:29:04 10° NNW 18:34:37 53° WSW 18:40:10 10° S
SL-8 Rocket 4.3 18:29:09 10° NNW 18:35:18 71° W 18:41:23 10° S
EP 2 4.0 18:38:38 10° SSW 18:41:13 74° ESE 18:41:24 69° E
IDEFIX/ARIANE 42P 3.6 18:37:14 10° S 18:42:14 47° W 18:47:15 10° NNW
Cosmos 2366 rocket 4.1 18:39:02 10° N 18:45:25 82° W 18:51:43 10° S
Cosmos 1484 Rocket 2.6 18:42:26 10° SSE 18:46:13 88° W 18:49:59 10° NNW
Okean 1-7 Rocket 4.3 18:43:02 10° SSE 18:46:43 32° E 18:46:43 32° E
Cosmos 2218 Rocket 4.3 18:40:58 10° NNW 18:47:14 69° W 18:53:23 10° S
OTV 4 2.3 18:45:54 10° WSW 18:48:31 26° SSW 18:49:40 20° SSE
CZ-3B DEB 2.4 18:45:18 10° WSW 18:49:03 67° NW 18:55:17 20° NE
Cosmos 921 Rocket 4.5 18:46:37 10° SSE 18:48:30 20° SE 18:48:30 20° SE
USA 234 4.4 18:45:29 13° NNE 18:50:25 33° NNW 18:56:07 10° W
SKYMED 2 3.5 18:46:19 10° NNE 18:50:41 86° WNW 18:55:01 10° SSW
Cosmos 1455 Rocket 3.5 18:48:44 10° NNW 18:53:05 63° W 18:57:26 10° S
Timation 2 Rocket 4.5 18:49:57 10° NNW 18:56:24 43° ENE 18:59:44 26° ESE
Cosmos 2082 Rocket 2.8 18:53:01 10° N 18:57:44 33° NE 18:57:44 33° NE
Cosmos 1241 Rocket 4.5 18:54:02 10° NNW 19:00:38 68° ENE 19:07:11 10° SE
Cosmos 1833 Rocket 3.6 18:59:05 10° N 19:02:46 28° NNE 19:02:46 28° NNE
BREEZE-M DEB (TANK) 4.4 18:58:57 10° WNW 19:04:16 25° N 19:05:27 23° NNE
NOSS 3-3 (A) 3.9 18:59:49 10° SSW 19:06:00 89° NW 19:09:41 28° NNE
NOSS 3-3 (C) 3.9 18:59:56 10° SSW 19:06:06 90° NW 19:09:45 28° NNE
Cosmos 375 4.4 19:01:50 10° NNW 19:05:55 58° NNE 19:05:55 58° NNE
Cosmos 494 Rocket 4.4 19:02:34 10° NNW 19:07:46 64° WSW 19:12:57 10° S
SL-8 R/B 3.6 19:03:18 10° WSW 19:08:05 88° NNW 19:09:02 58° NE
Cosmos 1809 Rocket 4.4 19:04:40 10° N 19:10:51 89° E 19:16:59 10° S
Okean 1 4.3 19:07:19 10° SSW 19:11:13 48° W 19:14:31 14° N
Cosmos 1500 3.4 19:08:34 10° NNW 19:12:23 71° W 19:16:11 10° S
Cosmos 2239 Rocket 4.5 19:06:28 10° N 19:12:32 53° E 19:18:32 10° SSE
NOAA 12 3.9 19:10:07 10° SSE 19:15:25 82° ENE 19:20:42 10° NNW
Meteor 1-28 Rocket 3.3 19:15:04 64° NNW 19:15:30 73° WNW 19:19:16 10° SSW
ATLAS 2AS CENTAUR R/B 3.3 19:07:55 10° NW 19:15:54 67° WSW 19:23:16 10° SSE
METEOR-M 4.0 19:10:54 10° SSE 19:16:11 70° ENE 19:21:31 10° N
Cosmos 1821 Rocket 3.9 19:14:54 10° N 19:20:56 59° E 19:26:55 10° SSE
ISS -0.9 19:20:00 10° WNW 19:21:48 18° NW 19:21:48 18° NW
Cosmos 1346 Rocket 3.9 19:28:30 10° SSW 19:32:13 42° WNW 19:32:45 39° NW
Tiangong 1 4.1 19:33:46 10° SW 19:34:09 13° SW 19:34:09 13° SW
Nadezhda 3 Rocket 4.5 19:34:43 10° SSW 19:40:47 59° W 19:46:58 10° N
ATLAS 3B CENTAUR R/B 3.8 19:45:53 10° WSW 19:58:38 37° SSW 20:00:11 34° SSE
Cosmos 2297 4.1 19:53:55 10° SW 19:59:27 58° WNW 19:59:27 58° WNW
Cosmos 2278 Rocket 4.2 20:12:14 10° WSW 20:16:33 22° NW 20:18:28 19° NNW
FALCON 9 R/B 3.3 20:13:04 10° W 20:26:28 56° SW 20:26:28 56° SW
Cosmos 2082 Rocket 4.2 20:37:06 10° NW 20:39:41 24° WNW 20:39:41 24° WNW
